Location: Unspecified
(0.0000°N, 0.0000°E)
Time: 17:02:28
(UTC+01:00)

H-2A R/B - Visible Passes

Search period start: 06 March 2015 00:00
Search period end: 16 March 2015 00:00
Orbit: 260 x 33531 km, 28.3° (Epoch: 05 March)

Date Brightness Start Highest point End Pass type
(mag) Time Alt. Az. Time Alt. Az. Time Alt. Az.
06 Mar 3.7 06:59:23 10° WNW 14:59:53 14° S 15:01:43 10° SE visible
07 Mar 7.0 01:20:30 10° NW 10:00:04 44° SSW 10:26:40 10° SE visible
07 Mar 5.6 20:42:38 10° NW 20:49:58 23° NNE 05:39:05 10° ESE visible
09 Mar 6.3 02:31:59 10° NW 11:21:21 31° SSW 11:34:45 10° SE visible
09 Mar 6.2 21:50:22 10° NW 22:04:52 32° NNE 06:53:30 10° SE visible
11 Mar 5.5 03:46:47 10° WNW 12:35:30 23° SSW 12:42:18 10° SE visible
11 Mar 6.6 22:58:08 10° NW 23:26:49 45° NNE 08:04:18 10° SE visible
12 Mar 4.2 18:22:57 10° NNW 18:24:47 13° N 18:27:53 10° NNE visible
13 Mar 4.4 05:15:58 13° WNW 13:46:14 18° S 13:49:36 10° SE visible
14 Mar 7.0 00:06:12 10° NW 01:17:06 64° NNE 09:13:10 10° SE visible
14 Mar 5.2 19:30:09 10° NNW 19:34:28 17° NNE 19:46:08 10° NE visible
14 Mar 5.2 19:30:10 10° NNW 19:34:27 17° NNE 19:46:09 10° NE visible
15 Mar 3.0 14:51:01 10° SW 14:54:58 21° S 14:56:51 10° ESE visible
